Location: Santa Giusta
(39.8800°N, 8.6069°E)
Time: 18:17:54
(UTC+00:00)

ATLAS 2AS CENTAUR R/B - Pass Details

Date: 02 February 2023
Orbit: 986 x 1226 km, 63.7° (Epoch: 30 March)

Event Time Altitude Azimuth Distance (km) Brightness Sun altitude
Rises 17:18:45 0° 329° (NNW) 3,964 5.9 -6.8°
Reaches altitude 10° 17:21:41 10° 336° (NNW) 2,965 5.1 -7.4°
Maximum altitude 17:28:17 43° 47° (NE) 1,453 3.0 -8.6°
Drops below altitude 10° 17:34:31 10° 118° (ESE) 2,802 4.5 -9.8°
Sets 17:37:12 0° 125° (SE) 3,726 5.1 -10.3°
